Flag for Germany Weather past 2 weeks in Sundern (Sauerland), North Rhine-Westphalia, Germany

Now
36 °F

Clear.


Feels Like: 30 °F
Forecast: 36 / 55 °F
Wind: 7 mph from South

Location: Dortmund / Wickede

Current Time: Mar 7, 2015 at 1:23:58 AM

Latest Report: Mar 6, 2015 at 10:50 PM


Visibility: 10 mi

Pressure: 30.51 "Hg

Humidity: 75%

Dew point: 28 °F

Location of Sundern (Sauerland)Location

Historic Weather in Sundern (Sauerland) — Graph

°F

Sundern (Sauerland) temperature yesterday

Maximum temperature yesterday: 46 °F (at 3:50 PM)
Minimum temperature yesterday: 36 °F (at 9:50 PM)
Average temperature yesterday: 41 °F

Past Weeks' High & Low Weather Summary

 TemperatureHumidityPressure
High52 °F (Mar 1, 12:50 PM)93% (Feb 21, 7:20 PM)30.63 "Hg (Feb 21, 7:20 PM)
Low30 °F (Feb 28, 5:20 AM)42% (Feb 28, 1:50 PM)29.33 "Hg (Feb 21, 5:20 AM)
Average40 °F74%29.92 "Hg
* Reported Feb 19 10:20 PM — Mar 6 10:50 PM, Sundern (Sauerland), Weather by CustomWeather, © 2015

Note: Actual official high and low records may vary slightly from our data, if they occured in-between our weather recording intervals... More about our weather records

Advertising

Sundern (Sauerland) weather history for previous 24 hours

 ConditionsComfort  
Time TempWeatherWind HumidityBarometerVisibility
10:50 PM
Fri, Mar 6
36 °FClear.7 mph75%30.51 "Hg10 mi
10:20 PM36 °FClear.8 mph81%30.51 "Hg10 mi
9:50 PM36 °FClear.8 mph81%30.51 "Hg10 mi
9:20 PM37 °FClear.7 mph75%30.51 "Hg10 mi
8:50 PM37 °FClear.6 mph70%30.54 "Hg10 mi
8:20 PM39 °FClear.6 mph75%30.54 "Hg10 mi
7:50 PM41 °FClear.7 mph70%30.54 "Hg10 mi
7:20 PM43 °FPassing clouds.7 mph66%30.54 "HgN/A
6:50 PM43 °FPassing clouds.7 mph71%30.54 "HgN/A
6:20 PM45 °FPassing clouds.5 mph61%30.54 "HgN/A
5:50 PM45 °FPartly sunny.6 mph61%30.54 "HgN/A
5:20 PM45 °FPartly sunny.7 mph61%30.54 "HgN/A
4:50 PM45 °FPartly sunny.8 mph61%30.54 "HgN/A
4:20 PM45 °FPartly sunny.9 mph61%30.54 "HgN/A
3:50 PM46 °FPartly sunny.9 mph62%30.54 "HgN/A
3:20 PM45 °FPartly sunny.9 mph61%30.54 "HgN/A
2:50 PM45 °FPartly sunny.7 mph61%30.57 "HgN/A
2:20 PM45 °FPartly sunny.7 mph61%30.57 "HgN/A
1:50 PM45 °FPartly sunny.9 mph66%30.57 "HgN/A
1:20 PM45 °FPartly sunny.9 mph66%30.57 "HgN/A
12:50 PM43 °FPartly sunny.9 mph71%30.57 "HgN/A
12:20 PM43 °FPartly sunny.8 mph71%30.60 "HgN/A
11:50 AM43 °FPartly sunny.8 mph66%30.60 "HgN/A
11:20 AM43 °FBroken clouds.10 mph66%30.60 "HgN/A
10:50 AM43 °FPartly sunny.10 mph66%30.60 "HgN/A
10:20 AM43 °FPartly sunny.9 mph66%30.60 "HgN/A
9:50 AM41 °FPartly sunny.10 mph70%30.60 "HgN/A
9:20 AM41 °FPartly sunny.9 mph70%30.60 "HgN/A
8:50 AM41 °FPartly sunny.8 mph70%30.60 "HgN/A
8:20 AM39 °FPartly sunny.8 mph75%30.60 "HgN/A
7:50 AM39 °FPartly sunny.8 mph75%30.60 "HgN/A
7:20 AM39 °FPartly sunny.9 mph75%30.57 "HgN/A
6:50 AM39 °FPassing clouds.9 mph75%30.60 "HgN/A
6:20 AM39 °FPassing clouds.8 mph75%30.60 "HgN/A
5:50 AM39 °FPassing clouds.8 mph75%30.60 "HgN/A
5:20 AM37 °FPassing clouds.9 mph81%30.60 "HgN/A
Weather by CustomWeather, © 2015

See weather overviewHow to use our weather pages